Retour au catalogue

FALCON HEAVY R/B

ActifLEO
NORAD 58050·ROCKET BODY·🇺🇸 United States

Lancé Oct 13, 2023 depuis Cape Canaveral Space Force Station

Loading…

Prochains Passages (prochaines 24 heures)

TLE

PériméSource: Space-Track

Époque: Oct 13, 2023, 14:28 UTC

1 58050U 23157B   23286.60289039  .00001209 -37902-5  00000-0 0  9993
2 58050  30.0000  47.5426 0467200 123.5100 359.9800 15.29658471    04

Suivez FALCON HEAVY R/B en temps réel avec AllMySat

Download on the App Store